Weather History for Eastover, SC

Change the Weather History Date:

Thursday, January 26, 2012

  Actual Average Record
Temperature  
Mean Temperature 61 °F -  
Max Temperature 75 °F 53 °F 75 °F (2012)
Min Temperature 47 °F 34 °F 21 °F (2001)
Degree Days  
Heating Degree Days 4    
Growing Degree Days 11 (Base 50)    
Moisture  
Dew Point 53 °F    
Average Humidity 93    
Maximum Humidity 100    
Minimum Humidity 57    
Precipitation  
Precipitation 0.00 in - - ()
Sea Level Pressure  
Sea Level Pressure 30.08 in    
Wind  
Wind Speed 3 mph (SE)    
Max Wind Speed 14 mph    
Max Gust Speed 20 mph    
Visibility 4 miles    
Events Fog    
Averages and records for this station are not official NWS values.
T = Trace of Precipitation, MM = Missing Value Source: NWS Daily Summary

Daily Weather History Graph

Daily Weather History Graph

Search for Another Location

Airport:

Trip Planner

Search our weather history database for the weather conditions in past years. The results will help you decide how hot, cold, wet, or windy it might be!

Date:

Astronomy

Jan. 26, 2012 Rise Set
Actual Time 7:24 AM EST 5:47 PM EST
Civil Twilight 6:57 AM EST 6:14 PM EST
Nautical Twilight 6:27 AM EST 6:44 PM EST
Astronomical Twilight 5:57 AM EST 7:13 PM EST
Moon 9:03 AM EST 9:24 PM EST
Length of Visible Light 11h 16m
Length of Day
10h 23m
Waxing Crescent, 12% of the Moon is Illuminated
Jan 26
Waxing Crescent
Jan 30
First Quarter
Feb 7
Full
Feb 14
Last Quarter
Feb 21
New

Hourly Weather History & Observations

Time (EST) Temp. Dew Point Humidity Pressure Visibility Wind Dir Wind Speed Gust Speed Precip Events Conditions
12:55 AM 47.8 °F 45.1 °F 90% 30.18 in 10.0 mi Calm Calm - N/A   Partly Cloudy
1:55 AM 47.5 °F 45.9 °F 94% 30.16 in 10.0 mi Calm Calm - N/A   Scattered Clouds
2:55 AM 50.0 °F 49.1 °F 97% 30.15 in 10.0 mi Calm Calm - N/A   Mostly Cloudy
3:55 AM 49.8 °F 48.7 °F 96% 30.14 in 10.0 mi Calm Calm - N/A   Scattered Clouds
4:55 AM 48.9 °F 48.6 °F 99% 30.14 in 10.0 mi East 3.5 mph - N/A   Clear
5:55 AM 50.2 °F 49.8 °F 99% 30.14 in 6.0 mi Calm Calm - N/A   Clear
6:02 AM 50.0 °F 50.0 °F 100% 30.14 in 2.5 mi East 3.5 mph - N/A   Clear
6:05 AM 50.0 °F 48.2 °F 94% 30.14 in 1.8 mi East 3.5 mph - N/A   Clear
6:06 AM 48.2 °F 48.2 °F 100% 30.14 in 1.2 mi East 3.5 mph - N/A   Clear
6:07 AM 48.2 °F 48.2 °F 100% 30.14 in 1.2 mi East 3.5 mph - N/A   Clear
6:08 AM 48.2 °F 48.2 °F 100% 30.14 in 1.0 mi East 3.5 mph - N/A   Clear
6:10 AM 48.2 °F 48.2 °F 100% 30.14 in 1.0 mi ESE 3.5 mph - N/A   Mist
6:16 AM 48.2 °F 48.2 °F 100% 30.14 in 1.2 mi East 3.5 mph - N/A   Partly Cloudy
6:18 AM 48.2 °F 48.2 °F 100% 30.14 in 1.5 mi East 3.5 mph - N/A   Partly Cloudy
6:26 AM 48.2 °F 48.2 °F 100% 30.14 in 1.8 mi East 3.5 mph - N/A   Clear
6:27 AM 48.2 °F 48.2 °F 100% 30.14 in 1.5 mi East 3.5 mph - N/A   Clear
6:32 AM 50.0 °F 48.2 °F 94% 30.14 in 1.2 mi Calm Calm - N/A   Clear
6:36 AM 50.0 °F 50.0 °F 100% 30.14 in 1.0 mi Calm Calm - N/A   Clear
6:43 AM 50.0 °F 50.0 °F 100% 30.14 in 0.8 mi ESE 3.5 mph - N/A   Clear
6:47 AM 50.0 °F 48.2 °F 94% 30.14 in 0.5 mi East 3.5 mph - N/A Fog Fog
6:49 AM 48.2 °F 48.2 °F 100% 30.14 in 0.5 mi East 4.6 mph - N/A Fog Fog
6:50 AM 48.2 °F 48.2 °F 100% 30.14 in 0.5 mi East 3.5 mph - N/A Fog Fog
6:55 AM 48.2 °F 47.8 °F 99% 30.13 in 1.0 mi East 4.6 mph - N/A   Mostly Cloudy
7:02 AM 48.2 °F 48.2 °F 100% 30.13 in 1.8 mi East 4.6 mph - N/A   Mostly Cloudy
7:05 AM 48.2 °F 48.2 °F 100% 30.13 in 2.5 mi East 4.6 mph - N/A   Mostly Cloudy
7:26 AM 50.0 °F 50.0 °F 100% 30.13 in 2.5 mi Calm Calm - N/A   Overcast
7:35 AM 50.0 °F 50.0 °F 100% 30.13 in 1.5 mi Calm Calm - N/A   Overcast
7:38 AM 51.8 °F 51.8 °F 100% 30.13 in 1.5 mi Calm Calm - N/A   Overcast
7:51 AM 51.8 °F 51.8 °F 100% 30.13 in 0.8 mi Calm Calm - N/A   Overcast
7:55 AM 51.8 °F 51.8 °F 100% 30.13 in 0.5 mi Calm Calm - N/A Fog Fog
7:59 AM 51.8 °F 51.8 °F 100% 30.13 in 0.2 mi East 3.5 mph - N/A Fog Fog
8:07 AM 51.8 °F 51.8 °F 100% 30.13 in 0.2 mi Calm Calm - N/A Fog Fog
8:55 AM 53.1 °F 53.1 °F 100% 30.12 in 0.1 mi East 3.5 mph - N/A Fog Fog
9:55 AM 56.1 °F 56.1 °F 100% 30.13 in 0.2 mi SSE 5.8 mph - N/A Fog Fog
10:01 AM 57.2 °F 57.2 °F 100% 30.13 in 0.2 mi SSE 6.9 mph - N/A Fog Fog
10:17 AM 57.2 °F 57.2 °F 100% 30.12 in 0.2 mi Variable 5.8 mph - N/A Fog Fog
10:37 AM 57.2 °F 57.2 °F 100% 30.11 in 0.5 mi SE 5.8 mph - N/A Fog Fog
10:52 AM 57.2 °F 57.2 °F 100% 30.10 in 0.8 mi SE 6.9 mph - N/A   Overcast
10:55 AM 58.3 °F 58.3 °F 100% 30.10 in 1.0 mi SE 5.8 mph - N/A   Overcast
11:01 AM 59.0 °F 59.0 °F 100% 30.09 in 1.5 mi SE 8.1 mph - N/A   Overcast
11:06 AM 59.0 °F 59.0 °F 100% 30.09 in 2.0 mi SE 8.1 mph - N/A   Overcast
11:19 AM 60.8 °F 60.8 °F 100% 30.08 in 4.0 mi SE 8.1 mph - N/A   Mostly Cloudy
11:23 AM 60.8 °F 60.8 °F 100% 30.07 in 7.0 mi SSE 6.9 mph - N/A   Mostly Cloudy
11:55 AM 65.8 °F 61.0 °F 84% 30.05 in 10.0 mi SSE 5.8 mph - N/A   Mostly Cloudy
12:15 PM 68.0 °F 59.0 °F 73% 30.03 in 10.0 mi SSE 9.2 mph - N/A   Overcast
12:55 PM 70.7 °F 60.1 °F 69% 30.00 in 10.0 mi South 5.8 mph - N/A   Mostly Cloudy
1:55 PM 72.7 °F 60.3 °F 65% 29.96 in 10.0 mi South 6.9 mph - N/A   Overcast
2:55 PM 74.8 °F 59.0 °F 58% 29.94 in 10.0 mi South 11.5 mph - N/A   Overcast
3:55 PM 75.0 °F 58.6 °F 57% 29.91 in 10.0 mi SSE 10.4 mph - N/A   Overcast
4:55 PM 73.6 °F 58.1 °F 58% 29.91 in 10.0 mi SSE 11.5 mph - N/A   Mostly Cloudy
5:55 PM 70.5 °F 58.8 °F 66% 29.89 in 10.0 mi SSE 12.7 mph - N/A   Overcast
6:55 PM 68.4 °F 59.2 °F 72% 29.89 in 10.0 mi SSE 10.4 mph - N/A   Overcast
7:55 PM 66.9 °F 59.9 °F 78% 29.88 in 10.0 mi SSE 8.1 mph - N/A   Overcast
8:55 PM 65.8 °F 60.6 °F 83% 29.86 in 10.0 mi SSE 10.4 mph - N/A   Overcast
9:55 PM 65.3 °F 60.4 °F 84% 29.85 in 10.0 mi South 10.4 mph - N/A   Mostly Cloudy
10:55 PM 65.1 °F 61.0 °F 86% 29.84 in 10.0 mi South 13.8 mph - N/A   Overcast
11:55 PM 65.8 °F 61.5 °F 86% 29.81 in 10.0 mi South 12.7 mph 19.6 mph N/A   Partly Cloudy